Powrót do katalogu

HULIANWANG DIGUI-127

AktywnyŁącznośćLEO
NORAD 67067·PAYLOAD·🇨🇳 China

Wystrzelony Dec 11, 2025 z Wenchang Space Launch Site

Loading…

Następne Przeloty (najbliższe 24 godziny)

TLE

ŚwieżeSource: Space-Track

Epoka: Sep 14, 2026, 20:29 UTC

1 67067U 25295J   26257.85389883 -.00000123  00000-0  14882-5 0  9998
2 67067  50.0008  63.5331 0000788  61.4453 298.6498 13.29324177 37430

Śledź HULIANWANG DIGUI-127 w czasie rzeczywistym z AllMySat

Download on the App Store